This is the latest recevied weather packets stored in our database for station/object K6CED. If no packets are shown the sender has not sent any weather packets the latest 10 day(s).
| Time | Temp. | Humidity | Pressure | Rain* | Wind** | Luminosity | Snow |
|---|---|---|---|---|---|---|---|
| 1788445302 | 13.33° C | 79% | 1017.7 hPa | 0 mm | - | 74 W/m² | - |
| 1788444997 | 12.22° C | 82% | 1017.6 hPa | 0 mm | - | 60 W/m² | - |
| 1788444691 | 11.67° C | 82% | 1017.6 hPa | 0 mm | - | 30 W/m² | - |
| 1788444388 | 11.67° C | 82% | 1017.5 hPa | 0 mm | - | 35 W/m² | - |
| 1788444092 | 11.11° C | 84% | 1017.5 hPa | 0 mm | - | 30 W/m² | - |
| 1788443778 | 11.67° C | 85% | 1017.5 hPa | 0 mm | - | 32 W/m² | - |
| 1788443472 | 11.67° C | 85% | 1017.5 hPa | 0 mm | - | 21 W/m² | - |
| 1788443171 | 11.67° C | 85% | 1017.2 hPa | 0 mm | - | 18 W/m² | - |
| 1788442862 | 11.11° C | 86% | 1017.1 hPa | 0 mm | - | 15 W/m² | - |
| 1788442575 | 11.11° C | 86% | 1017.2 hPa | 0 mm | - | 11 W/m² | - |
| 1788442255 | 11.11° C | 86% | 1017 hPa | 0 mm | - | 8 W/m² | - |
| 1788441950 | 11.67° C | 86% | 1017 hPa | 0 mm | - | 5 W/m² | - |
| 1788441644 | 11.67° C | 87% | 1017.1 hPa | 0 mm | - | 2 W/m² | - |
| 1788441343 | 11.67° C | 88% | 1017.2 hPa | 0 mm | - | 1 W/m² | - |
| 1788441056 | 11.67° C | 87% | 1016.7 hPa | 0 mm | - | 0 W/m² | - |
| 1788440732 | 11.67° C | 87% | 1017.1 hPa | 0 mm | - | 0 W/m² | - |
| 1788440427 | 11.67° C | 88% | 1016.9 hPa | 0 mm | - | 0 W/m² | - |
| 1788440125 | 11.67° C | 87% | 1017.1 hPa | 0 mm | - | 0 W/m² | - |
| 1788439821 | 11.11° C | 87% | 1017.1 hPa | 0 mm | - | 0 W/m² | - |
| 1788439515 | 11.11° C | 87% | 1016.9 hPa | 0 mm | - | 0 W/m² | - |
| 1788439215 | 11.67° C | 88% | 1016.9 hPa | 0 mm | - | 0 W/m² | - |
| 1788438909 | 11.11° C | 87% | 1017.1 hPa | 0 mm | - | 0 W/m² | - |
| 1788438608 | 11.11° C | 86% | 1017.1 hPa | 0 mm | - | 0 W/m² | - |
| 1788438308 | 11.67° C | 86% | 1017 hPa | 0 mm | - | 0 W/m² | - |
| 1788438002 | 11.11° C | 86% | 1017.2 hPa | 0 mm | - | 0 W/m² | - |
* Rain latest hour (hover to see other rain measurements)
** Current wind speed in m/s (hover to see current wind gust speed)